Location: Chin
(49.7667°N, 112.4500°W)
Time: 10:45:40
(UTC+00:00)

Envisat - Pass Details

Date: 03 December 2021
Orbit: 764 x 766 km, 98.2° (Epoch: 25 January)

Event Time Altitude Azimuth Distance (km) Brightness Sun altitude
Rises 14:27:49 0° 2° (N) 3,247 6.0 -6.5°
Reaches altitude 10° 14:31:01 10° 340° (NNW) 2,316 5.1 -6.0°
Maximum altitude 14:33:54 15° 306° (NW) 1,961 4.5 -5.6°
Drops below altitude 10° 14:36:46 10° 271° (W) 2,307 4.9 -5.2°
Sets 14:39:58 0° 250° (WSW) 3,228 5.8 -4.8°
